sat.trackr.live / text

‹ back to catalog

STARLINK-31039

NORAD 58784 · 2024-011V

PAYLOAD ACTIVE UNKNOWN

§ Identity

Operator
Country
US
Launch date
2024-01-14
Launch site
AFWTR
Launch vehicle
Mass (kg)
RCS (m²)

Purposes: comms

External: N2YO · Heavens-Above · Gunter

§ Orbital elements

Epoch: 2026-09-20T10:47:39.541344Z

Period
93.85 min
Inclination
53.1603°
Eccentricity
0.0001297
Mean motion
15.34371861 rev/d
Perigee alt
461.9 km
Apogee alt
463.7 km
Semi-major
6,840.9 km
B*
-3.9825e-5
RAAN
187.9820°
Arg perigee
74.8353°
Mean anomaly
285.2793°
Rev number
15,010

§ Raw data

STARLINK-310391 58784U 24011V   26263.44976321 -.00001720  00000+0 -39825-4 0  99972 58784  53.1603 187.9820 0001297  74.8353 285.2793 15.34371861150108

JSON: /api/v1/satellites/58784 · /tle

For live sub-satellite position, see the globe view (requires WebGL).

§ Visibility from observer

Set your observer location to see the next 7 days of passes ≥ 10°. The values pass through the URL so the page stays shareable.

No JS? Fill the form by hand. The geolocation button needs JavaScript.